NTAANCRG

Guest
Details From NTAA - Faaa
To NCRG - Rarotonga Intl
Flight Number -
Tags Generated
Created
Modified
Stats Distance 617 nm / 1,143 km
Max Altitude 0 ft / 0 m
Waypoints 3
Social Downloads 2
Likes 0
Share VATSIM

Download

Looking for another format? Having issues loading an existing format? Contact us
Advertisement - Login to hide

Notes

Generated

Route

NTAA RG NCRG

ID Type Via Altitude Latitude Longitude Leg Dist Tot Dist Heading (true) Name
O NTAA APT - 0 ft / 0 m -17.56288˚ -149.62043˚ - 0 nm - -
RG VOR - 0 ft / 0 m -21.20164˚ -159.81436˚ 617 nm 617 nm 248° / 251° RAROTONGA VOR-DME
O NCRG APT - 0 ft / 0 m -21.20274˚ -159.81677˚ 0 nm 617 nm 244° / 244° -

Altitude Profile

Advertisement - Login to hide

Weather


0- 5 10 15 20 25 30 35+ Temperature / ° C

Clouds and Precipitation
Forecast for 2017-12-13 12:00 UTC. Updated 2 hours ago

Ground ~20,000 ft ~40,000 ft Winds

NTAA

Details ICAO NTAA (PPT)
Name Faaa
Region French Polynesia
Timezone Pacific/Tahiti (UTC-10.0)
Stats Elevation 5 ft / 2 m (AMSL)
Location -17.553765° -149.607255°
Runways 1
Magnetic Variation 12.875° E

METAR

NTAA 130830Z 11002KT 9999 FEW020 BKN230 26/22 Q1011 NOSIG

Decode

TAF

TAF NTAA 130500Z 1306/1412 04006KT 9999 FEW023 BKN250 PROB30 TEMPO 1323/1403 3000 SHRA SCT018 BKN040

Decode

Departure Runways

ID Width Length Bearing (true) Bearing (mag) Surface Threshold Offset Overrun Length
04 148 ft / 45 m 11,323 ft / 3,451 m 54.04° 41.16° Asphalt 1,099 ft / 335 m 0 ft / 0 m
22 148 ft / 45 m 11,323 ft / 3,451 m 234.03° 221.15° Asphalt 479 ft / 146 m 0 ft / 0 m

NCRG

Details ICAO NCRG (RAR)
Name Rarotonga Intl
Region Cook Islands
Timezone Pacific/Rarotonga (UTC-10.0)
Stats Elevation 19 ft / 6 m (AMSL)
Location -21.202739° -159.805555°
Runways 1
Magnetic Variation 13.934° E

METAR

NCRG 130800Z 16002KT 9999 FEW016 SCT040 SCT100 25/24 Q1009

Decode

TAF

TAF NCRG 130511Z 1306/1406 25007KT 9999 -SHRA FEW009 SCT014 PROB30 TEMPO 1306/1318 6000 SHRA BKN014

Decode

Destination Runways

ID Width Length Bearing (true) Bearing (mag) Surface Threshold Offset Overrun Length
08 150 ft / 46 m 7,629 ft / 2,325 m 89.99° 76.06° Concrete 400 ft / 122 m 100 ft / 30 m
26 150 ft / 46 m 7,629 ft / 2,325 m 269.98° 256.05° Concrete 0 ft / 0 m 0 ft / 0 m

Approach Navaids

Runway Type Ident Frequency Range Bearing (true) Bearing (mag) Slope Elevation
08 Localiser INO 109.90 MHz 18 nm / 33 km 89.79° 75.86° - 19 ft / 6 m (AMSL)
08 Glidescope INO 109.90 MHz 10 nm / 19 km 89.98° 76.05° 3.00° 19 ft / 6 m (AMSL)
08 DME INO 109.90 MHz 18 nm / 33 km - - - 19 ft / 6 m (AMSL)
26 Localiser IAV 110.30 MHz 18 nm / 33 km 270.19° 256.26° - 19 ft / 6 m (AMSL)
26 Glidescope IAV 110.30 MHz 10 nm / 19 km 269.98° 256.05° 3.00° 19 ft / 6 m (AMSL)
26 DME IAV 110.30 MHz 18 nm / 33 km - - - 19 ft / 6 m (AMSL)

Popular Alternatives